Richmond, VA

7:06 PM EST on December 04, 2016 (GMT -0500)
Richmond International

Weather History for KRIC - April, 2013

Change the Weather History Date:

Thursday, April 25, 2013

  Actual Average Record
Temperature  
Mean Temperature 58 °F 61 °F  
Max Temperature 68 °F 73 °F 96 °F (1925)
Min Temperature 47 °F 49 °F 30 °F (1936)
Degree Days  
Heating Degree Days 7 6  
Month to date heating degree days 184 215  
Since 1 July heating degree days 3576 3667  
Cooling Degree Days 0 2  
Month to date cooling degree days 65 28  
Year to date cooling degree days 66 34  
Growing Degree Days 9 (Base 50)    
Moisture  
Dew Point 37 °F    
Average Humidity 49    
Maximum Humidity 74    
Minimum Humidity 24    
Precipitation  
Precipitation 0.00 in 0.11 in 2.39 in (1937)
Month to date precipitation 1.87 2.73  
Year to date precipitation 15.37 12.57  
Snow  
Snow 0.00 in 0.00 in 0.00 in (2002)
Month to date snowfall T 0.1  
Since 1 July snowfall 8.6 10.3  
Snow Depth 0.00 in    
Sea Level Pressure  
Sea Level Pressure 30.21 in    
Wind  
Wind Speed 9 mph (North)    
Max Wind Speed 24 mph    
Max Gust Speed 30 mph    
Visibility 10 miles    
Events      
T = Trace of Precipitation, MM = Missing Value Source: NWS Daily Summary

Daily Weather History Graph

Daily Weather History Graph

Search for Another Location

Airport or City:

Trip Planner

Search our weather history database for the weather conditions in past years. The results will help you decide how hot, cold, wet, or windy it might be!

Date:

Astronomy

Apr. 25, 2013 Rise Set
Actual Time 6:20 AM EDT 7:54 PM EDT
Civil Twilight 5:53 AM EDT 8:21 PM EDT
Nautical Twilight 5:20 AM EDT 8:55 PM EDT
Astronomical Twilight 4:44 AM EDT 9:30 PM EDT
Moon 8:04 PM EDT (4/25) 6:02 AM EDT (4/25)
Length of Visible Light 14h 28m
Length of Day
13h 33m
Full, 100% of the Moon is Illuminated
Apr 25
Full
Apr 25
Full
May 2
Last Quarter
May 9
New
May 18
First Quarter

Hourly Weather History & Observations

Time (EDT) Temp. Dew Point Humidity Pressure Visibility Wind Dir Wind Speed Gust Speed Precip Events Conditions
12:54 AM 64.0 °F 55.0 °F 73% 29.98 in 10.0 mi SSW 6.9 mph - N/A   Mostly Cloudy
1:54 AM 64.0 °F 55.0 °F 73% 30.00 in 10.0 mi WSW 6.9 mph - N/A   Mostly Cloudy
2:54 AM 64.9 °F 52.0 °F 63% 30.03 in 10.0 mi North 9.2 mph - N/A   Overcast
3:54 AM 61.0 °F 46.0 °F 58% 30.07 in 10.0 mi North 13.8 mph 21.9 mph N/A   Overcast
4:54 AM 57.0 °F 39.9 °F 53% 30.13 in 10.0 mi North 17.3 mph 25.3 mph N/A   Overcast
5:54 AM 52.0 °F 36.0 °F 54% 30.19 in 10.0 mi North 20.7 mph 26.5 mph N/A   Mostly Cloudy
6:54 AM 51.1 °F 32.0 °F 48% 30.25 in 10.0 mi North 18.4 mph 26.5 mph N/A   Mostly Cloudy
7:54 AM 51.1 °F 30.9 °F 46% 30.27 in 10.0 mi North 19.6 mph 29.9 mph N/A   Scattered Clouds
8:54 AM 53.1 °F 32.0 °F 45% 30.27 in 10.0 mi North 15.0 mph 21.9 mph N/A   Scattered Clouds
9:54 AM 55.9 °F 34.0 °F 44% 30.29 in 10.0 mi North 11.5 mph 16.1 mph N/A   Scattered Clouds
10:54 AM 57.0 °F 33.1 °F 40% 30.29 in 10.0 mi North 11.5 mph - N/A   Scattered Clouds
11:54 AM 59.0 °F 34.0 °F 39% 30.29 in 10.0 mi North 8.1 mph - N/A   Mostly Cloudy
12:54 PM 61.0 °F 34.0 °F 36% 30.27 in 10.0 mi NE 6.9 mph - N/A   Mostly Cloudy
1:54 PM 63.0 °F 30.9 °F 30% 30.27 in 10.0 mi North 6.9 mph - N/A   Scattered Clouds
2:54 PM 64.0 °F 28.9 °F 27% 30.25 in 10.0 mi West 4.6 mph - N/A   Partly Cloudy
3:54 PM 64.9 °F 30.0 °F 27% 30.24 in 10.0 mi South 4.6 mph - N/A   Partly Cloudy
4:54 PM 66.0 °F 28.9 °F 25% 30.23 in 10.0 mi Calm Calm - N/A   Clear
5:54 PM 66.0 °F 28.9 °F 25% 30.23 in 10.0 mi WSW 4.6 mph - N/A   Clear
6:54 PM 64.0 °F 33.1 °F 31% 30.23 in 10.0 mi South 4.6 mph - N/A   Clear
7:54 PM 61.0 °F 33.1 °F 35% 30.24 in 10.0 mi SSE 3.5 mph - N/A   Clear
8:54 PM 53.1 °F 41.0 °F 64% 30.27 in 10.0 mi ESE 9.2 mph - N/A   Clear
9:54 PM 51.1 °F 43.0 °F 74% 30.29 in 10.0 mi ESE 6.9 mph - N/A   Clear
10:54 PM 51.1 °F 42.1 °F 71% 30.30 in 10.0 mi SSE 5.8 mph - N/A   Clear
11:54 PM 50.0 °F 43.0 °F 77% 30.30 in 10.0 mi SE 4.6 mph - N/A   Clear